ESNVD EETN-EETN

Flight info

Callsign ESNVD
Flight time 0h 4m
Altitude 2000
Route DCT
Aircraft EC13/L-V/N

Departure

Time 2026-05-04 18:11
Airport Lennart Meri Tallinn Airport (EETN)

Arrival

Time 2026-05-04 18:16
Airport Lennart Meri Tallinn Airport (EETN)
Time Latitude Longitude Altitude Speed Heading
2026-05-04 18:07 59.45035 24.60222 18 ft 0 kts 360°
2026-05-04 18:10 59.45058 24.60315 9 ft 17 kts 339°
2026-05-04 18:11 59.45064 24.60316 10 ft 14 kts 308°
2026-05-04 18:11 59.45180 24.60698 194 ft 66 kts 95°
2026-05-04 18:11 59.45134 24.61782 469 ft 82 kts 99°
2026-05-04 18:11 59.45001 24.62887 847 ft 89 kts 112°
2026-05-04 18:12 59.44776 24.64115 1011 ft 104 kts 107°
2026-05-04 18:12 59.44523 24.65399 1188 ft 100 kts 118°
2026-05-04 18:12 59.44138 24.66368 1421 ft 98 kts 140°
2026-05-04 18:12 59.43602 24.67485 1203 ft 128 kts 120°
2026-05-04 18:13 59.43310 24.69251 719 ft 139 kts 104°
2026-05-04 18:13 59.43114 24.70375 306 ft 84 kts 123°
2026-05-04 18:13 59.42643 24.72946 358 ft 102 kts 107°
2026-05-04 18:14 59.42422 24.74150 409 ft 89 kts 112°
2026-05-04 18:14 59.42171 24.75465 298 ft 109 kts 117°
2026-05-04 18:14 59.41841 24.76843 333 ft 114 kts 110°
2026-05-04 18:15 59.41469 24.79714 420 ft 116 kts 97°
2026-05-04 18:15 59.41384 24.82841 452 ft 112 kts 75°
2026-05-04 18:15 59.41793 24.83957 576 ft 92 kts 40°
2026-05-04 18:16 59.42086 24.84902 786 ft 82 kts 61°
2026-05-04 18:16 59.42155 24.85770 1214 ft 17 kts 32°
2026-05-04 18:16 59.42174 24.85610 1040 ft 46 kts 339°
2026-05-04 18:17 59.43089 24.86405 215 ft 84 kts 53°
2026-05-04 18:17 59.43263 24.87336 104 ft 57 kts 74°
2026-05-04 18:17 59.43677 24.88239 256 ft 76 kts 352°
2026-05-04 18:18 59.43873 24.87549 423 ft 75 kts 266°
2026-05-04 18:18 59.43906 24.86333 347 ft 93 kts 281°
2026-05-04 18:18 59.44038 24.85001 367 ft 91 kts 279°
2026-05-04 18:18 59.43922 24.84167 850 ft 84 kts 190°
2026-05-04 18:19 59.43553 24.84231 986 ft 86 kts 185°
2026-05-04 18:19 59.43138 24.84555 1143 ft 99 kts 126°
2026-05-04 18:19 59.43005 24.86099 1008 ft 126 kts 87°
2026-05-04 18:20 59.43030 24.87825 935 ft 99 kts 92°
2026-05-04 18:20 59.42991 24.89055 1058 ft 82 kts 85°
2026-05-04 18:20 59.43090 24.90285 1126 ft 100 kts 74°
2026-05-04 18:20 59.43164 24.91749 1052 ft 100 kts 85°
2026-05-04 18:21 59.43249 24.93228 925 ft 118 kts 70°
2026-05-04 18:21 59.43510 24.94816 712 ft 124 kts 59°
2026-05-04 18:21 59.43726 24.95195 954 ft 27 kts 223°
2026-05-04 18:21 59.43512 24.95032 1082 ft 21 kts 289°
2026-05-04 18:22 59.43583 24.94544 1103 ft 60 kts 272°
2026-05-04 18:22 59.43596 24.93961 1276 ft 30 kts 220°
2026-05-04 18:22 59.43422 24.94378 1181 ft 66 kts 61°
2026-05-04 18:22 59.43418 24.95267 585 ft 40 kts 341°
2026-05-04 18:23 59.43568 24.95031 257 ft 43 kts 296°
2026-05-04 18:23 59.43576 24.94928 116 ft 0 kts 127°
2026-05-04 18:23 59.43579 24.94930 118 ft 4 kts 199°
2026-05-04 18:24 59.43524 24.94953 238 ft 31 kts 256°
2026-05-04 18:24 59.43461 24.94270 420 ft 75 kts 244°
2026-05-04 18:24 59.43243 24.93227 576 ft 100 kts 253°
2026-05-04 18:24 59.43043 24.91856 554 ft 121 kts 250°
2026-05-04 18:25 59.42803 24.90400 580 ft 110 kts 253°
2026-05-04 18:25 59.42737 24.89261 802 ft 87 kts 262°
2026-05-04 18:25 59.42571 24.88070 1109 ft 84 kts 256°
2026-05-04 18:25 59.42412 24.86792 986 ft 98 kts 256°
2026-05-04 18:26 59.42338 24.85544 740 ft 90 kts 262°
2026-05-04 18:26 59.42316 24.84261 679 ft 106 kts 265°
2026-05-04 18:26 59.42329 24.82836 696 ft 92 kts 255°
2026-05-04 18:26 59.42073 24.81519 657 ft 113 kts 250°
2026-05-04 18:27 59.41774 24.80000 425 ft 85 kts 234°
2026-05-04 18:27 59.41459 24.78933 665 ft 87 kts 240°
2026-05-04 18:27 59.41237 24.77640 493 ft 111 kts 273°
2026-05-04 18:27 59.41869 24.76622 314 ft 132 kts 326°
2026-05-04 18:28 59.42716 24.75908 259 ft 135 kts 331°
2026-05-04 18:28 59.43456 24.75577 379 ft 77 kts 354°
2026-05-04 18:28 59.44039 24.75731 352 ft 91 kts 10°
2026-05-04 18:28 59.44496 24.75464 333 ft 67 kts 317°
2026-05-04 18:29 59.44921 24.74882 268 ft 78 kts 297°
2026-05-04 18:29 59.45244 24.74057 41 ft 55 kts 271°
2026-05-04 18:29 59.45311 24.73964 5 ft 0 kts 238°
2026-05-04 18:30 59.45307 24.73945 22 ft 12 kts 302°
2026-05-04 18:31 59.45385 24.73358 202 ft 65 kts 239°
2026-05-04 18:31 59.44988 24.74170 178 ft 116 kts 119°
2026-05-04 18:31 59.44546 24.75592 193 ft 126 kts 116°
2026-05-04 18:31 59.44310 24.77337 154 ft 137 kts 110°
2026-05-04 18:32 59.43875 24.78187 231 ft 75 kts 172°
2026-05-04 18:32 59.43517 24.78026 642 ft 57 kts 238°
2026-05-04 18:32 59.43029 24.77833 613 ft 103 kts 162°
2026-05-04 18:32 59.42429 24.78102 489 ft 87 kts 167°
2026-05-04 18:33 59.41937 24.78852 515 ft 89 kts 139°
2026-05-04 18:33 59.41578 24.79927 353 ft 100 kts 94°
2026-05-04 18:33 59.41491 24.81253 268 ft 90 kts 85°
2026-05-04 18:33 59.41489 24.82381 181 ft 63 kts 86°
2026-05-04 18:34 59.41504 24.82791 160 ft 10 kts
2026-05-04 18:34 59.41560 24.82729 159 ft 2 kts 85°
2026-05-04 18:34 59.41557 24.82757 158 ft 2 kts 162°
2026-05-04 18:34 59.41557 24.82758 158 ft 0 kts 171°
2026-05-04 18:35 59.41556 24.82759 158 ft 3 kts 133°
2026-05-04 18:35 59.41556 24.82764 161 ft 2 kts 202°
2026-05-04 18:36 59.41555 24.82766 158 ft 0 kts 257°
2026-05-04 18:36 59.41629 24.82686 187 ft 15 kts 177°
2026-05-04 18:36 59.41752 24.82668 289 ft 41 kts 349°
2026-05-04 18:36 59.42139 24.83011 428 ft 81 kts 19°
2026-05-04 18:37 59.42695 24.83541 505 ft 92 kts 20°
2026-05-04 18:37 59.43170 24.84088 801 ft 80 kts 29°
2026-05-04 18:37 59.43851 24.84403 778 ft 116 kts 350°
2026-05-04 18:37 59.44738 24.84429 663 ft 136 kts 355°
2026-05-04 18:38 59.45200 24.84507 1007 ft 63 kts
2026-05-04 18:38 59.45549 24.84584 1519 ft 60 kts 351°
2026-05-04 18:38 59.46141 24.84662 523 ft 124 kts 359°
2026-05-04 18:38 59.47004 24.84515 167 ft 134 kts 346°
2026-05-04 18:39 59.47871 24.84234 140 ft 118 kts 335°
2026-05-04 18:39 59.48627 24.83753 67 ft 110 kts 326°
2026-05-04 18:39 59.49046 24.83171 129 ft 60 kts 308°
2026-05-04 18:39 59.49466 24.82534 17 ft 87 kts 303°
2026-05-04 18:40 59.49804 24.82026 89 ft 58 kts 300°
2026-05-04 18:40 59.49890 24.81803 7 ft 0 kts 221°
2026-05-04 18:42 59.49896 24.81792 6 ft 0 kts 314°